logo
Search for airport 
image banner adimage banner adimage banner ad
image banner ad

EHS055 - Rottevalle

Located in , Netherlands

ICAO - , IATA -

Data provided by Airmate  

General information

Coordinates: N53°9'23" E6°5'19"
Elevation is feet MSL.
 
View others Airports in Friesland

Operational data

Special qualification required
Current time UTC:
Current local time:
Weather at : EHLW - Leeuwarden/Leeuwarden ( 24 km )
METAR: EHLW 171225Z AUTO 28011KT 240V320 9999 BKN018 BKN022 OVC140 19/15 Q1020 WHT NOSIG
TAF: TAF EHLW 170846Z 1709/1721 28010KT 9999 SCT015 BKN020 BECMG 1710/1712 SCT020 SCT035 PROB40 TEMPO 1717/1721 SCT015
View NOTAMs / SUP AIP / TFR affecting this airport [VIEW]
Communications frequencies: [VIEW]

Runways:

Airport contact information

Address: Netherlands

Satellite view of EHS055